Time,TemperatureF,DewpointF,PressureIn,WindDirection,WindDirectionDegrees,WindSpeedMPH,WindSpeedGustMPH,Humidity,HourlyPrecipIn,Conditions,Clouds,dailyrainin,SoftwareType,DateUTC
2013-01-02 00:07:00,23.3,21.6,30.65,SW,221,1.1,0.0,93,0.00,OVC,,0.00,WeatherDisplay:10.37,2013-01-02 08:07:00,
2013-01-02 00:27:00,23.3,21.6,30.65,SW,221,1.1,0.0,93,0.00,OVC,,0.00,WeatherDisplay:10.37,2013-01-02 08:27:00,
2013-01-02 00:37:00,23.3,21.6,30.65,SW,221,1.1,0.0,93,0.00,OVC,,0.00,WeatherDisplay:10.37,2013-01-02 08:37:00,
2013-01-02 00:48:00,23.3,21.6,30.65,SW,221,1.1,0.0,93,0.00,OVC,,0.00,WeatherDisplay:10.37,2013-01-02 08:48:00,
2013-01-02 01:15:00,23.3,21.6,30.65,SW,221,1.1,0.0,93,0.00,OVC,,0.00,WeatherDisplay:10.37,2013-01-02 09:15:00,
2013-01-02 01:20:00,23.3,21.6,30.65,SW,221,1.1,0.0,93,0.00,OVC,,0.00,WeatherDisplay:10.37,2013-01-02 09:20:00,
2013-01-02 01:28:00,23.3,21.6,30.65,SW,221,1.1,0.0,93,0.00,OVC,,0.00,WeatherDisplay:10.37,2013-01-02 09:28:00,
2013-01-02 01:33:00,23.3,21.6,30.65,SW,221,1.1,0.0,93,0.00,OVC,,0.00,WeatherDisplay:10.37,2013-01-02 09:33:00,
2013-01-02 01:44:00,23.3,21.6,30.65,SW,221,1.1,0.0,93,0.00,OVC,,0.00,WeatherDisplay:10.37,2013-01-02 09:44:00,
2013-01-02 02:00:00,23.3,21.6,30.65,SW,221,1.1,0.0,93,0.00,OVC,,0.00,WeatherDisplay:10.37,2013-01-02 10:00:00,
2013-01-02 02:09:00,23.3,21.6,30.65,SW,221,1.1,0.0,93,0.00,OVC,,0.00,WeatherDisplay:10.37,2013-01-02 10:09:00,
2013-01-02 02:27:00,23.3,21.6,30.65,SW,221,1.1,0.0,93,0.00,OVC,,0.00,WeatherDisplay:10.37,2013-01-02 10:27:00,
2013-01-02 02:32:00,23.3,21.6,30.65,SW,221,1.1,0.0,93,0.00,OVC,,0.00,WeatherDisplay:10.37,2013-01-02 10:32:00,
2013-01-02 02:39:00,23.3,21.6,30.65,SW,221,1.1,0.0,93,0.00,OVC,,0.00,WeatherDisplay:10.37,2013-01-02 10:39:00,
2013-01-02 02:57:00,23.3,21.6,30.65,SW,221,1.1,0.0,93,0.00,OVC,,0.00,WeatherDisplay:10.37,2013-01-02 10:57:00,
2013-01-02 03:07:00,23.3,21.6,30.65,SW,221,1.1,0.0,93,0.00,OVC,,0.00,WeatherDisplay:10.37,2013-01-02 11:07:00,
2013-01-02 03:32:00,23.3,21.6,30.65,SW,221,1.1,0.0,93,0.00,OVC,,0.00,WeatherDisplay:10.37,2013-01-02 11:32:00,
2013-01-02 03:48:00,23.3,21.6,30.65,SW,221,1.1,0.0,93,0.00,OVC,,0.00,WeatherDisplay:10.37,2013-01-02 11:48:00,
2013-01-02 04:04:00,23.3,21.6,30.65,SW,221,1.1,0.0,93,0.00,OVC,,0.00,WeatherDisplay:10.37,2013-01-02 12:04:00,
2013-01-02 04:10:00,23.3,21.6,30.65,SW,221,1.1,0.0,93,0.00,OVC,,0.00,WeatherDisplay:10.37,2013-01-02 12:10:00,
2013-01-02 04:34:00,23.3,21.6,30.65,SW,221,1.1,0.0,93,0.00,OVC,,0.00,WeatherDisplay:10.37,2013-01-02 12:34:00,
2013-01-02 04:41:00,23.3,21.6,30.65,SW,221,1.1,0.0,93,0.00,OVC,,0.00,WeatherDisplay:10.37,2013-01-02 12:41:00,
2013-01-02 05:14:00,23.3,21.6,30.65,SW,221,1.1,0.0,93,0.00,OVC,,0.00,WeatherDisplay:10.37,2013-01-02 13:14:00,
2013-01-02 05:34:00,23.3,21.6,30.65,SW,221,1.1,0.0,93,0.00,OVC,,0.00,WeatherDisplay:10.37,2013-01-02 13:34:00,
2013-01-02 05:57:00,23.3,21.6,30.65,SW,221,1.1,0.0,93,0.00,OVC,,0.00,WeatherDisplay:10.37,2013-01-02 13:57:00,
2013-01-02 06:06:00,23.3,21.6,30.65,SW,221,1.1,0.0,93,0.00,OVC,,0.00,WeatherDisplay:10.37,2013-01-02 14:06:00,
2013-01-02 06:12:00,23.3,21.6,30.65,SW,221,1.1,0.0,93,0.00,OVC,,0.00,WeatherDisplay:10.37,2013-01-02 14:12:00,
2013-01-02 06:54:00,23.3,21.6,30.65,SW,221,1.1,0.0,93,0.00,OVC,,0.00,WeatherDisplay:10.37,2013-01-02 14:54:00,
2013-01-02 06:59:00,23.3,21.6,30.65,SW,221,1.1,0.0,93,0.00,OVC,,0.00,WeatherDisplay:10.37,2013-01-02 14:59:00,
2013-01-02 07:08:00,23.3,21.6,30.65,SW,221,1.1,0.0,93,0.00,OVC,,0.00,WeatherDisplay:10.37,2013-01-02 15:08:00,
2013-01-02 07:16:00,23.3,21.6,30.65,SW,221,1.1,0.0,93,0.00,OVC,,0.00,WeatherDisplay:10.37,2013-01-02 15:16:00,
2013-01-02 07:22:00,23.3,21.6,30.65,SW,221,1.1,0.0,93,0.00,OVC,,0.00,WeatherDisplay:10.37,2013-01-02 15:22:00,
2013-01-02 08:05:00,23.3,21.6,30.65,SW,221,1.1,0.0,93,0.00,OVC,,0.00,WeatherDisplay:10.37,2013-01-02 16:05:00,
2013-01-02 08:24:00,23.3,21.6,30.65,SW,221,1.1,0.0,93,0.00,OVC,,0.00,WeatherDisplay:10.37,2013-01-02 16:24:00,
2013-01-02 08:41:00,23.3,21.6,30.65,SW,221,1.1,0.0,93,0.00,OVC,,0.00,WeatherDisplay:10.37,2013-01-02 16:41:00,
2013-01-02 08:49:00,23.3,21.6,30.65,SW,221,1.1,0.0,93,0.00,OVC,,0.00,WeatherDisplay:10.37,2013-01-02 16:49:00,
2013-01-02 09:05:00,23.3,21.6,30.65,SW,221,1.1,0.0,93,0.00,OVC,,0.00,WeatherDisplay:10.37,2013-01-02 17:05:00,
2013-01-02 09:17:00,23.3,21.6,30.65,SW,221,1.1,0.0,93,0.00,OVC,,0.00,WeatherDisplay:10.37,2013-01-02 17:17:00,
2013-01-02 09:27:00,23.3,21.6,30.65,SW,221,1.1,0.0,93,0.00,OVC,,0.00,WeatherDisplay:10.37,2013-01-02 17:27:00,
2013-01-02 09:54:00,23.3,21.6,30.65,SW,221,1.1,0.0,93,0.00,OVC,,0.00,WeatherDisplay:10.37,2013-01-02 17:54:00,
2013-01-02 09:59:00,23.3,21.6,30.65,SW,221,1.1,0.0,93,0.00,OVC,,0.00,WeatherDisplay:10.37,2013-01-02 17:59:00,
2013-01-02 10:05:00,23.3,21.6,30.65,SW,221,1.1,0.0,93,0.00,OVC,,0.00,WeatherDisplay:10.37,2013-01-02 18:05:00,
2013-01-02 10:18:00,23.3,21.6,30.65,SW,221,1.1,0.0,93,0.00,OVC,,0.00,WeatherDisplay:10.37,2013-01-02 18:18:00,
2013-01-02 10:44:00,23.3,21.6,30.65,SW,221,1.1,0.0,93,0.00,OVC,,0.00,WeatherDisplay:10.37,2013-01-02 18:44:00,
2013-01-02 11:32:00,23.3,21.6,30.65,SW,221,1.1,0.0,93,0.00,OVC,,0.00,WeatherDisplay:10.37,2013-01-02 19:32:00,
2013-01-02 11:44:00,23.3,21.6,30.65,SW,221,1.1,0.0,93,0.00,OVC,,0.00,WeatherDisplay:10.37,2013-01-02 19:44:00,
2013-01-02 11:56:00,23.3,21.6,30.65,SW,221,1.1,0.0,93,0.00,OVC,,0.00,WeatherDisplay:10.37,2013-01-02 19:56:00,
2013-01-02 12:19:00,23.3,21.6,30.65,SW,221,1.1,0.0,93,0.00,OVC,,0.00,WeatherDisplay:10.37,2013-01-02 20:19:00,
2013-01-02 12:51:00,23.3,21.6,30.65,SW,221,1.1,0.0,93,0.00,OVC,,0.00,WeatherDisplay:10.37,2013-01-02 20:51:00,
2013-01-02 12:57:00,23.3,21.6,30.65,SW,221,1.1,0.0,93,0.00,OVC,,0.00,WeatherDisplay:10.37,2013-01-02 20:57:00,
2013-01-02 13:03:00,19.7,15.9,30.61,ESE,114,5.0,5.0,85,0.00,CLR,,0.00,WeatherDisplay:10.37,2013-01-02 21:03:00,
2013-01-02 13:10:00,19.8,16.0,30.61,ESE,115,4.0,4.0,85,0.00,OVC,,0.00,WeatherDisplay:10.37,2013-01-02 21:10:00,
2013-01-02 13:15:00,20.1,16.0,30.61,ESE,115,4.0,4.0,84,0.00,OVC,,0.00,WeatherDisplay:10.37,2013-01-02 21:15:00,
2013-01-02 13:20:00,20.1,16.0,30.61,ESE,115,3.5,3.5,84,0.00,OVC,,0.00,WeatherDisplay:10.37,2013-01-02 21:20:00,
2013-01-02 13:25:00,20.2,16.1,30.61,ESE,114,3.5,3.5,84,0.00,OVC,,0.00,WeatherDisplay:10.37,2013-01-02 21:25:00,
2013-01-02 13:30:00,20.0,15.9,30.61,ESE,115,3.5,3.5,84,0.00,OVC,,0.00,WeatherDisplay:10.37,2013-01-02 21:30:00,
2013-01-02 13:35:00,20.0,15.9,30.62,ESE,115,3.5,3.5,84,0.00,OVC,,0.00,WeatherDisplay:10.37,2013-01-02 21:35:00,
2013-01-02 13:40:00,19.9,15.8,30.62,ESE,115,3.5,3.5,84,0.00,OVC,,0.00,WeatherDisplay:10.37,2013-01-02 21:40:00,
2013-01-02 13:45:00,19.7,15.6,30.62,ESE,115,3.5,3.5,84,0.00,OVC,,0.00,WeatherDisplay:10.37,2013-01-02 21:45:00,
2013-01-02 13:50:00,19.7,15.6,30.62,ESE,107,5.8,5.8,84,0.00,OVC,,0.00,WeatherDisplay:10.37,2013-01-02 21:50:00,
2013-01-02 13:55:00,19.7,15.6,30.62,ESE,107,4.6,4.6,84,0.00,OVC,,0.00,WeatherDisplay:10.37,2013-01-02 21:55:00,
2013-01-02 14:00:00,19.3,15.3,30.62,ESE,107,6.0,6.0,84,0.00,OVC,,0.00,WeatherDisplay:10.37,2013-01-02 22:00:00,
2013-01-02 14:06:00,19.5,15.7,30.62,ESE,108,5.8,5.8,85,0.00,CLR,,0.00,WeatherDisplay:10.37,2013-01-02 22:06:00,
2013-01-02 14:11:00,19.2,15.2,30.62,ESE,107,4.6,5.1,84,0.00,CLR,,0.00,WeatherDisplay:10.37,2013-01-02 22:11:00,
2013-01-02 14:16:00,19.1,15.3,30.62,ESE,108,4.6,4.6,85,0.00,CLR,,0.00,WeatherDisplay:10.37,2013-01-02 22:16:00,
2013-01-02 14:21:00,19.3,15.8,30.61,ESE,109,6.0,6.0,86,0.00,CLR,,0.00,WeatherDisplay:10.37,2013-01-02 22:21:00,
2013-01-02 14:26:00,19.5,15.7,30.61,ESE,109,5.0,5.0,85,0.00,CLR,,0.00,WeatherDisplay:10.37,2013-01-02 22:26:00,
2013-01-02 14:31:00,19.7,15.9,30.61,ESE,109,5.0,5.0,85,0.00,CLR,,0.00,WeatherDisplay:10.37,2013-01-02 22:31:00,
2013-01-02 14:36:00,19.3,15.3,30.62,ESE,109,4.6,4.7,84,0.00,CLR,,0.00,WeatherDisplay:10.37,2013-01-02 22:36:00,
2013-01-02 14:41:00,19.6,15.8,30.61,ESE,109,5.0,5.0,85,0.00,CLR,,0.00,WeatherDisplay:10.37,2013-01-02 22:41:00,
2013-01-02 14:46:00,19.7,15.9,30.61,ESE,109,5.0,5.0,85,0.00,CLR,,0.00,WeatherDisplay:10.37,2013-01-02 22:46:00,
2013-01-02 14:51:00,19.7,15.9,30.62,ESE,102,4.0,4.0,85,0.00,CLR,,0.00,WeatherDisplay:10.37,2013-01-02 22:51:00,
2013-01-02 14:56:00,19.6,15.6,30.62,East,99,4.0,4.0,84,0.00,CLR,,0.00,WeatherDisplay:10.37,2013-01-02 22:56:00,
2013-01-02 15:01:00,19.3,15.5,30.62,East,99,3.5,3.7,85,0.00,CLR,,0.00,WeatherDisplay:10.37,2013-01-02 23:01:00,
2013-01-02 15:06:00,19.3,15.8,30.62,East,99,3.5,3.5,86,0.00,CLR,,0.00,WeatherDisplay:10.37,2013-01-02 23:06:00,
2013-01-02 15:11:00,19.3,15.5,30.62,East,99,4.0,4.0,85,0.00,CLR,,0.00,WeatherDisplay:10.37,2013-01-02 23:11:00,
2013-01-02 15:16:00,19.2,15.4,30.62,East,99,3.5,3.5,85,0.00,CLR,,0.00,WeatherDisplay:10.37,2013-01-02 23:16:00,
2013-01-02 15:21:00,19.2,15.4,30.62,East,99,3.5,3.5,85,0.00,CLR,,0.00,WeatherDisplay:10.37,2013-01-02 23:21:00,
2013-01-02 15:26:00,19.0,15.2,30.62,East,99,3.5,3.5,85,0.00,CLR,,0.00,WeatherDisplay:10.37,2013-01-02 23:26:00,
2013-01-02 15:31:00,18.6,14.8,30.62,East,99,4.0,4.0,85,0.00,CLR,,0.00,WeatherDisplay:10.37,2013-01-02 23:31:00,
2013-01-02 15:36:00,18.7,15.2,30.62,East,99,4.6,4.6,86,0.00,CLR,,0.00,WeatherDisplay:10.37,2013-01-02 23:36:00,
2013-01-02 15:41:00,18.9,15.4,30.62,East,99,5.0,5.0,86,0.00,CLR,,0.00,WeatherDisplay:10.37,2013-01-02 23:41:00,
2013-01-02 15:46:00,18.6,15.1,30.62,East,99,4.0,4.0,86,0.00,CLR,,0.00,WeatherDisplay:10.37,2013-01-02 23:46:00,
2013-01-02 15:51:00,18.1,14.6,30.63,East,99,4.0,4.0,86,0.00,CLR,,0.00,WeatherDisplay:10.37,2013-01-02 23:51:00,
2013-01-02 15:56:00,17.6,14.1,30.63,East,99,3.5,3.5,86,0.00,CLR,,0.00,WeatherDisplay:10.37,2013-01-02 23:56:00,
2013-01-02 16:01:00,17.0,13.5,30.63,East,99,4.0,4.0,86,0.00,CLR,,0.00,WeatherDisplay:10.37,2013-01-03 00:01:00,
2013-01-02 16:06:00,16.5,13.3,30.63,East,99,3.5,3.5,87,0.00,CLR,,0.00,WeatherDisplay:10.37,2013-01-03 00:06:00,
2013-01-02 16:11:00,16.3,13.1,30.64,East,99,4.0,4.1,87,0.00,CLR,,0.00,WeatherDisplay:10.37,2013-01-03 00:11:00,
2013-01-02 16:16:00,16.4,13.5,30.64,East,99,5.0,5.0,88,0.00,CLR,,0.00,WeatherDisplay:10.37,2013-01-03 00:16:00,
2013-01-02 16:21:00,16.7,13.8,30.63,East,99,4.6,4.8,88,0.00,CLR,,0.00,WeatherDisplay:10.37,2013-01-03 00:21:00,
2013-01-02 16:26:00,17.1,14.4,30.62,ESE,105,4.6,4.6,89,0.00,CLR,,0.00,WeatherDisplay:10.37,2013-01-03 00:26:00,
2013-01-02 16:31:00,16.1,12.9,30.63,ESE,107,6.0,6.0,87,0.00,CLR,,0.00,WeatherDisplay:10.37,2013-01-03 00:31:00,
2013-01-02 16:36:00,15.7,12.8,30.63,ESE,110,5.8,5.8,88,0.00,CLR,,0.00,WeatherDisplay:10.37,2013-01-03 00:36:00,
2013-01-02 16:41:00,16.5,13.8,30.62,ESE,110,5.0,5.0,89,0.00,CLR,,0.00,WeatherDisplay:10.37,2013-01-03 00:41:00,
2013-01-02 16:46:00,16.0,13.1,30.63,ESE,110,5.0,5.0,88,0.00,CLR,,0.00,WeatherDisplay:10.37,2013-01-03 00:46:00,
2013-01-02 16:51:00,15.4,12.5,30.63,ESE,110,5.0,5.0,88,0.00,CLR,,0.00,WeatherDisplay:10.37,2013-01-03 00:51:00,
2013-01-02 16:56:00,14.5,11.3,30.63,ESE,110,3.5,3.5,87,0.00,CLR,,0.00,WeatherDisplay:10.37,2013-01-03 00:56:00,
2013-01-02 17:01:00,14.3,11.4,30.64,ESE,110,3.5,3.5,88,0.00,CLR,,0.00,WeatherDisplay:10.37,2013-01-03 01:01:00,
2013-01-02 17:06:00,14.5,11.9,30.63,ESE,110,2.3,2.3,89,0.00,CLR,,0.00,WeatherDisplay:10.37,2013-01-03 01:06:00,
2013-01-02 17:11:00,14.9,12.5,30.63,ESE,110,3.5,3.5,90,0.00,CLR,,0.00,WeatherDisplay:10.37,2013-01-03 01:11:00,
2013-01-02 17:16:00,14.8,12.1,30.62,ESE,110,3.5,3.5,89,0.00,CLR,,0.00,WeatherDisplay:10.37,2013-01-03 01:16:00,
2013-01-02 17:21:00,14.5,11.9,30.62,SE,130,4.0,4.0,89,0.00,CLR,,0.00,WeatherDisplay:10.37,2013-01-03 01:21:00,
2013-01-02 17:26:00,15.2,12.8,30.62,SE,144,3.5,3.5,90,0.00,CLR,,0.00,WeatherDisplay:10.37,2013-01-03 01:26:00,
2013-01-02 17:31:00,15.3,12.6,30.62,SE,144,3.5,3.5,89,0.00,CLR,,0.00,WeatherDisplay:10.37,2013-01-03 01:31:00,
2013-01-02 17:36:00,14.9,12.2,30.62,SE,144,3.5,3.5,89,0.00,CLR,,0.00,WeatherDisplay:10.37,2013-01-03 01:36:00,
2013-01-02 17:41:00,14.5,11.9,30.62,SE,144,2.3,2.3,89,0.00,CLR,,0.00,WeatherDisplay:10.37,2013-01-03 01:41:00,
2013-01-02 17:46:00,14.3,11.7,30.63,SE,144,3.5,3.5,89,0.00,CLR,,0.00,WeatherDisplay:10.37,2013-01-03 01:46:00,
2013-01-02 17:51:00,14.5,11.9,30.62,SE,144,3.5,3.5,89,0.00,CLR,,0.00,WeatherDisplay:10.37,2013-01-03 01:51:00,
2013-01-02 17:56:00,14.4,11.8,30.63,SE,144,4.0,4.0,89,0.00,CLR,,0.00,WeatherDisplay:10.37,2013-01-03 01:56:00,
2013-01-02 18:01:00,15.2,12.8,30.62,SE,144,5.0,5.0,90,0.00,CLR,,0.00,WeatherDisplay:10.37,2013-01-03 02:01:00,
2013-01-02 18:06:00,14.6,11.7,30.62,SE,144,4.0,4.0,88,0.00,CLR,,0.00,WeatherDisplay:10.37,2013-01-03 02:06:00,
2013-01-02 18:11:00,13.7,10.8,30.63,SE,144,5.8,5.8,88,0.00,CLR,,0.00,WeatherDisplay:10.37,2013-01-03 02:11:00,
2013-01-02 18:17:00,13.1,10.2,30.63,SE,144,1.1,1.1,88,0.00,CLR,,0.00,WeatherDisplay:10.37,2013-01-03 02:17:00,
2013-01-02 18:22:00,13.0,10.4,30.63,SE,144,3.5,3.5,89,0.00,CLR,,0.00,WeatherDisplay:10.37,2013-01-03 02:22:00,
2013-01-02 18:27:00,14.1,11.7,30.62,SE,144,5.0,5.0,90,0.00,CLR,,0.00,WeatherDisplay:10.37,2013-01-03 02:27:00,
2013-01-02 18:32:00,15.8,13.6,30.62,SE,144,5.8,5.8,91,0.00,CLR,,0.00,WeatherDisplay:10.37,2013-01-03 02:32:00,
2013-01-02 18:37:00,16.3,13.9,30.62,SE,144,5.0,5.0,90,0.00,CLR,,0.00,WeatherDisplay:10.37,2013-01-03 02:37:00,
2013-01-02 18:42:00,15.6,12.9,30.62,SE,134,5.0,5.0,89,0.00,CLR,,0.00,WeatherDisplay:10.37,2013-01-03 02:42:00,
2013-01-02 18:47:00,15.6,13.2,30.62,SE,134,5.0,5.0,90,0.00,CLR,,0.00,WeatherDisplay:10.37,2013-01-03 02:47:00,
2013-01-02 18:52:00,15.6,13.2,30.62,SE,134,4.0,4.0,90,0.00,CLR,,0.00,WeatherDisplay:10.37,2013-01-03 02:52:00,
2013-01-02 18:57:00,14.6,11.7,30.61,SE,136,3.5,3.5,88,0.00,CLR,,0.00,WeatherDisplay:10.37,2013-01-03 02:57:00,
2013-01-02 19:02:00,12.3,8.9,30.62,SE,140,3.5,3.5,86,0.00,CLR,,0.00,WeatherDisplay:10.37,2013-01-03 03:02:00,
2013-01-02 19:07:00,10.7,7.6,30.63,SE,140,3.5,3.5,87,0.00,CLR,,0.00,WeatherDisplay:10.37,2013-01-03 03:07:00,
2013-01-02 19:12:00,9.9,7.1,30.64,SE,140,3.5,3.5,88,0.00,CLR,,0.00,WeatherDisplay:10.37,2013-01-03 03:12:00,
2013-01-02 19:17:00,9.9,7.3,30.64,SE,141,3.5,3.5,89,0.00,CLR,,0.00,WeatherDisplay:10.37,2013-01-03 03:17:00,
2013-01-02 19:22:00,10.9,8.8,30.62,SE,141,3.5,3.5,91,0.00,CLR,,0.00,WeatherDisplay:10.37,2013-01-03 03:22:00,
2013-01-02 19:27:00,11.9,9.8,30.62,SE,141,3.5,3.5,91,0.00,CLR,,0.00,WeatherDisplay:10.37,2013-01-03 03:27:00,
2013-01-02 19:32:00,12.3,9.9,30.62,SE,141,3.5,3.5,90,0.00,CLR,,0.00,WeatherDisplay:10.37,2013-01-03 03:32:00,
2013-01-02 19:38:00,12.4,10.0,30.62,SE,141,3.5,3.5,90,0.00,CLR,,0.00,WeatherDisplay:10.37,2013-01-03 03:38:00,
2013-01-02 19:44:00,14.4,12.3,30.61,SSE,157,4.6,4.6,91,0.00,CLR,,0.00,WeatherDisplay:10.37,2013-01-03 03:44:00,
2013-01-02 19:49:00,13.5,10.1,30.61,SSE,159,3.5,3.5,86,0.00,CLR,,0.00,WeatherDisplay:10.37,2013-01-03 03:49:00,
2013-01-02 19:54:00,12.2,8.8,30.62,SSE,159,4.0,4.0,86,0.00,CLR,,0.00,WeatherDisplay:10.37,2013-01-03 03:54:00,
2013-01-02 19:59:00,12.6,9.5,30.61,South,175,3.5,3.5,87,0.00,CLR,,0.00,WeatherDisplay:10.37,2013-01-03 03:59:00,
2013-01-02 20:04:00,12.1,8.7,30.61,South,175,3.5,3.5,86,0.00,CLR,,0.00,WeatherDisplay:10.37,2013-01-03 04:04:00,
2013-01-02 20:09:00,12.2,9.1,30.61,South,175,3.5,3.5,87,0.00,CLR,,0.00,WeatherDisplay:10.37,2013-01-03 04:09:00,
2013-01-02 20:14:00,12.6,9.5,30.60,South,175,3.5,3.5,87,0.00,CLR,,0.00,WeatherDisplay:10.37,2013-01-03 04:14:00,
2013-01-02 20:19:00,12.2,8.8,30.61,South,175,2.3,2.3,86,0.00,CLR,,0.00,WeatherDisplay:10.37,2013-01-03 04:19:00,
2013-01-02 20:24:00,11.9,8.5,30.61,South,175,3.5,3.5,86,0.00,CLR,,0.00,WeatherDisplay:10.37,2013-01-03 04:24:00,
2013-01-02 20:29:00,12.5,9.4,30.61,South,175,2.3,2.3,87,0.00,CLR,,0.00,WeatherDisplay:10.37,2013-01-03 04:29:00,
2013-01-02 20:34:00,14.0,11.1,30.60,South,175,3.5,3.5,88,0.00,CLR,,0.00,WeatherDisplay:10.37,2013-01-03 04:34:00,
2013-01-02 20:39:00,14.1,10.7,30.60,South,175,3.5,3.5,86,0.00,CLR,,0.00,WeatherDisplay:10.37,2013-01-03 04:39:00,
2013-01-02 20:44:00,13.6,10.2,30.60,South,175,3.5,3.5,86,0.00,CLR,,0.00,WeatherDisplay:10.37,2013-01-03 04:44:00,
2013-01-02 20:49:00,13.2,9.8,30.60,South,175,2.3,2.3,86,0.00,CLR,,0.00,WeatherDisplay:10.37,2013-01-03 04:49:00,
2013-01-02 20:54:00,13.7,10.8,30.60,South,175,3.5,3.5,88,0.00,CLR,,0.00,WeatherDisplay:10.37,2013-01-03 04:54:00,
2013-01-02 20:59:00,14.3,11.4,30.60,South,175,2.3,2.3,88,0.00,CLR,,0.00,WeatherDisplay:10.37,2013-01-03 04:59:00,
2013-01-02 21:00:00,14.3,11.1,30.60,South,175,2.3,2.3,87,0.00,CLR,,0.00,WeatherDisplay:10.37,2013-01-03 05:00:00,
2013-01-02 21:02:00,14.4,11.2,30.61,South,175,2.3,2.3,87,0.00,CLR,,0.00,WeatherDisplay:10.37,2013-01-03 05:02:00,
2013-01-02 21:07:00,14.7,11.8,30.60,South,175,2.3,2.3,88,0.00,CLR,,0.00,WeatherDisplay:10.37,2013-01-03 05:07:00,
2013-01-02 21:12:00,15.2,12.0,30.60,South,175,2.3,2.3,87,0.00,CLR,,0.00,WeatherDisplay:10.37,2013-01-03 05:12:00,
2013-01-02 21:17:00,15.1,11.9,30.60,South,175,4.0,4.0,87,0.00,CLR,,0.00,WeatherDisplay:10.37,2013-01-03 05:17:00,
2013-01-02 21:22:00,15.2,11.8,30.60,South,175,3.5,3.5,86,0.00,CLR,,0.00,WeatherDisplay:10.37,2013-01-03 05:22:00,
2013-01-02 21:27:00,14.4,10.7,30.60,South,175,1.1,0.0,85,0.00,CLR,,0.00,WeatherDisplay:10.37,2013-01-03 05:27:00,
2013-01-02 21:32:00,13.7,10.0,30.60,South,175,0.0,0.0,85,0.00,CLR,,0.00,WeatherDisplay:10.37,2013-01-03 05:32:00,
2013-01-02 21:37:00,13.2,10.1,30.61,South,175,2.3,2.3,87,0.00,CLR,,0.00,WeatherDisplay:10.37,2013-01-03 05:37:00,
2013-01-02 21:42:00,13.4,10.5,30.61,South,175,3.5,3.5,88,0.00,CLR,,0.00,WeatherDisplay:10.37,2013-01-03 05:42:00,
2013-01-02 21:47:00,13.7,11.1,30.60,South,175,4.0,4.0,89,0.00,CLR,,0.00,WeatherDisplay:10.37,2013-01-03 05:47:00,
2013-01-02 21:52:00,13.0,9.9,30.61,South,175,2.3,2.3,87,0.00,CLR,,0.00,WeatherDisplay:10.37,2013-01-03 05:52:00,
2013-01-02 21:57:00,12.3,9.2,30.61,South,175,2.3,2.3,87,0.00,CLR,,0.00,WeatherDisplay:10.37,2013-01-03 05:57:00,
2013-01-02 22:02:00,10.7,7.3,30.61,South,175,2.3,2.3,86,0.00,CLR,,0.00,WeatherDisplay:10.37,2013-01-03 06:02:00,
2013-01-02 22:07:00,9.9,6.8,30.62,South,175,2.3,2.3,87,0.00,CLR,,0.00,WeatherDisplay:10.37,2013-01-03 06:07:00,
2013-01-02 22:12:00,9.7,6.9,30.62,South,175,3.5,3.5,88,0.00,CLR,,0.00,WeatherDisplay:10.37,2013-01-03 06:12:00,
2013-01-02 22:17:00,10.1,7.5,30.61,South,175,2.3,2.3,89,0.00,CLR,,0.00,WeatherDisplay:10.37,2013-01-03 06:17:00,
2013-01-02 22:22:00,10.5,7.9,30.61,South,175,2.3,2.3,89,0.00,CLR,,0.00,WeatherDisplay:10.37,2013-01-03 06:22:00,
2013-01-02 22:28:00,10.4,7.8,30.61,South,175,2.3,2.3,89,0.00,CLR,,0.00,WeatherDisplay:10.37,2013-01-03 06:28:00,
2013-01-02 22:32:00,10.4,7.8,30.61,South,175,2.3,2.3,89,0.00,CLR,,0.00,WeatherDisplay:10.37,2013-01-03 06:32:00,
2013-01-02 22:38:00,11.0,8.6,30.60,South,175,2.3,2.3,90,0.00,CLR,,0.00,WeatherDisplay:10.37,2013-01-03 06:38:00,
2013-01-02 22:43:00,11.4,9.0,30.60,South,175,0.0,0.0,90,0.00,CLR,,0.00,WeatherDisplay:10.37,2013-01-03 06:43:00,
2013-01-02 22:48:00,11.5,8.9,30.60,South,175,0.0,0.0,89,0.00,CLR,,0.00,WeatherDisplay:10.37,2013-01-03 06:48:00,
2013-01-02 22:53:00,10.7,7.6,30.60,South,175,0.0,0.0,87,0.00,CLR,,0.00,WeatherDisplay:10.37,2013-01-03 06:53:00,
2013-01-02 22:58:00,10.2,7.4,30.61,South,175,4.6,4.6,88,0.00,CLR,,0.00,WeatherDisplay:10.37,2013-01-03 06:58:00,
2013-01-02 23:03:00,10.4,7.6,30.61,South,175,3.5,3.5,88,0.00,CLR,,0.00,WeatherDisplay:10.37,2013-01-03 07:03:00,
2013-01-02 23:08:00,9.8,7.0,30.61,South,175,4.0,4.0,88,0.00,CLR,,0.00,WeatherDisplay:10.37,2013-01-03 07:08:00,
2013-01-02 23:13:00,9.2,6.1,30.61,South,175,1.1,1.1,87,0.00,CLR,,0.00,WeatherDisplay:10.37,2013-01-03 07:13:00,
2013-01-02 23:18:00,9.1,6.3,30.61,South,175,3.5,3.5,88,0.00,CLR,,0.00,WeatherDisplay:10.37,2013-01-03 07:18:00,
2013-01-02 23:23:00,8.6,5.5,30.60,South,179,3.5,3.5,87,0.00,CLR,,0.00,WeatherDisplay:10.37,2013-01-03 07:23:00,
2013-01-02 23:28:00,8.1,5.0,30.61,South,179,3.5,3.5,87,0.00,CLR,,0.00,WeatherDisplay:10.37,2013-01-03 07:28:00,
2013-01-02 23:33:00,9.4,7.1,30.60,South,179,6.9,6.9,90,0.00,CLR,,0.00,WeatherDisplay:10.37,2013-01-03 07:33:00,
2013-01-02 23:38:00,12.6,10.2,30.58,South,179,5.8,5.8,90,0.00,CLR,,0.00,WeatherDisplay:10.37,2013-01-03 07:38:00,
2013-01-02 23:43:00,11.5,7.9,30.59,South,180,3.5,3.5,85,0.00,CLR,,0.00,WeatherDisplay:10.37,2013-01-03 07:43:00,
2013-01-02 23:48:00,11.6,8.5,30.59,South,180,3.5,3.5,87,0.00,CLR,,0.00,WeatherDisplay:10.37,2013-01-03 07:48:00,
2013-01-02 23:53:00,12.3,9.4,30.59,South,180,4.6,4.6,88,0.00,CLR,,0.00,WeatherDisplay:10.37,2013-01-03 07:53:00,
2013-01-02 23:58:00,12.6,9.5,30.58,South,180,4.6,4.6,87,0.00,CLR,,0.00,WeatherDisplay:10.37,2013-01-03 07:58:00,